カタログに戻る

KUIPER-00118

運用中通信LEO
NORAD 65154·PAYLOAD·🇺🇸 United States

打ち上げ Aug 11, 2025 から Cape Canaveral Space Force Station

Loading…

次のパス (今後24時間)

TLE

最新Source: CelesTrak SupGP

元期: Sep 14, 2026, 22:53 UTC

1 65154C 25171Y   26257.95388889  .00006723  00000+0  88038-3 0  2571
2 65154  51.8994  58.6521 0000576  86.6721 142.7080 14.79908152    13

AllMySatでKUIPER-00118をリアルタイム追跡

Download on the App Store